This demonstration page uses our WeatherBlox Daily Observations layout. Learn more.

Left ArrowRight Arrow

41.86663, -103.66717

Hourly Observations for March 14, 2018

Temp ( °F °C ) Dew Point ( °F °C ) Humidity (%) Winds ( mph kmh ) Pressure ( in mb ) Visibility ( mi km ) Precip ( " mm )
12:53 am 00:53 Clear 36 2.2 23 -5 59 59 ESE 8 13 30.11 1020 10 16 N/A
1:53 am 01:53 Clear 40 4.4 26 -3.3 58 58 SE 7 11 30.07 1018 10 16 N/A
2:53 am 02:53 Clear 40 4.4 27 -2.8 60 60 SE 6 9 30.05 1018 10 16 N/A
3:53 am 03:53 Clear 33 0.6 25 -3.9 72 72 E 9 15 30.04 1017 10 16 N/A
4:53 am 04:53 Clear 30 -1.1 23 -5 75 75 E 7 11 30.03 1017 10 16 N/A
5:53 am 05:53 Clear 29 -1.7 23 -5 78 78 E 5 7 30.03 1017 10 16 N/A
6:53 am 06:53 Clear 27 -2.8 22 -5.6 81 81 E 6 9 30.03 1017 10 16 N/A
7:53 am 07:53 Sunny 30 -1.1 25 -3.9 82 82 E 3 6 30.04 1017 10 16 N/A
8:53 am 08:53 Sunny 38 3.3 28 -2.2 68 68 N N/A 30.03 1017 10 16 N/A
9:53 am 09:53 Sunny 44 6.7 29 -1.7 55 55 SSE 3 6 30.01 1016 10 16 N/A
10:53 am 10:53 Sunny 50 10 28 -2.2 43 43 N N/A 29.98 1015 10 16 N/A
11:53 am 11:53 Sunny 58 14.4 25 -3.9 28 28 VRB 3 6 29.93 1014 10 16 N/A
12:53 pm 12:53 Sunny 63 17.2 25 -3.9 24 24 SE 7 11 29.88 1012 10 16 N/A
1:53 pm 13:53 Sunny 68 20 24 -4.4 19 19 ESE 10 17 29.81 1010 10 16 N/A
2:53 pm 14:53 Sunny 70 21.1 22 -5.6 16 16 SSE 10 17 29.76 1008 10 16 N/A
3:53 pm 15:53 Sunny 70 21.1 21 -6.1 16 16 SE 9 15 29.75 1008 10 16 N/A
4:53 pm 16:53 Sunny 69 20.6 21 -6.1 16 16 ESE 10 17 29.74 1007 10 16 N/A
5:53 pm 17:53 Sunny 66 18.9 22 -5.6 19 19 SSE 8 13 29.74 1007 10 16 N/A
6:53 pm 18:53 Sunny 61 16.1 21 -6.1 21 21 SE 8 13 29.76 1008 10 16 N/A
7:53 pm 19:53 Clear 50 10 23 -5 35 35 E 8 13 29.77 1008 10 16 N/A
8:53 pm 20:53 Clear 47 8.3 25 -3.9 42 42 ESE 6 9 29.75 1007 10 16 N/A
9:53 pm 21:53 Clear 46 7.8 24 -4.4 42 42 E 7 11 29.74 1007 10 16 N/A
10:53 pm 22:53 Clear 45 7.2 22 -5.6 40 40 E 10 17 29.71 1006 10 16 N/A
11:53 pm 23:53 Clear 42 5.6 22 -5.6 45 45 E 9 15 29.68 1005 10 16 N/A

Powered by AerisWeather